Flag for U.S.A. Weather past 2 weeks in Wilmington, Delaware, U.S.A.

Now
69 °F

Clear.


Feels Like: 69 °F
Forecast: 62 / 80 °F
Wind: 8 mph from Southeast

Location: New Castle County Airport

Current Time: Aug 29, 2014 at 10:14:49 PM

Latest Report: Aug 29, 2014 at 9:51 PM


Visibility: 10 mi

Pressure: 30.22 "Hg

Humidity: 73%

Dew point: 60 °F

Location of WilmingtonLocation

Historic Weather in Wilmington — Graph

°F

Wilmington temperature yesterday

Maximum temperature yesterday: 81 °F (at 3:51 PM)
Minimum temperature yesterday: 62 °F (at 10:51 PM)
Average temperature yesterday: 74 °F

Past Weeks' High & Low Weather Summary

 TemperatureHumidityPressure
High87 °F (Aug 27, 2:51 PM)97% (Aug 25, 4:51 AM)30.21 "Hg (Aug 25, 4:51 AM)
Low56 °F (Aug 16, 6:51 AM)39% (Aug 28, 5:51 PM)29.83 "Hg (Aug 18, 6:51 PM)
Average72 °F69%30.02 "Hg
* Reported Aug 14 8:51 PM — Aug 29 8:51 PM, Wilmington, Weather by CustomWeather, © 2014

Note: Actual official high and low records may vary slightly from our data, if they occured in-between our weather recording intervals... More about our weather records

Advertising

Wilmington weather history for previous 24 hours

 ConditionsComfort  
Time TempWeatherWind HumidityBarometerVisibility
8:51 PM
Aug 29
70 °FClear.7 mph71%30.21 "Hg10 mi
7:51 PM73 °FSunny.5 mph50%30.18 "Hg10 mi
6:51 PM76 °FSunny.No wind43%30.18 "Hg10 mi
5:51 PM76 °FSunny.8 mph43%30.18 "Hg10 mi
4:51 PM77 °FSunny.5 mph39%30.16 "Hg10 mi
2:51 PM75 °FSunny.3 mph43%30.18 "Hg10 mi
1:51 PM74 °FSunny.8 mph43%30.19 "Hg10 mi
12:51 PM75 °FSunny.7 mph43%30.20 "Hg10 mi
11:51 AM74 °FSunny.6 mph43%30.21 "Hg10 mi
10:51 AM72 °FSunny.8 mph48%30.21 "Hg10 mi
9:51 AM70 °FSunny.3 mph55%30.20 "Hg10 mi
8:51 AM66 °FSunny.6 mph61%30.20 "Hg10 mi
7:51 AM62 °FSunny.6 mph70%30.19 "Hg10 mi
6:51 AM56 °FClear.6 mph81%30.17 "Hg10 mi
5:51 AM59 °FClear.5 mph69%30.15 "Hg10 mi
4:51 AM59 °FClear.7 mph72%30.13 "Hg10 mi
3:51 AM58 °FClear.7 mph75%30.11 "Hg10 mi
2:51 AM58 °FClear.6 mph75%30.11 "Hg10 mi
1:51 AM61 °FClear.9 mph65%30.11 "Hg10 mi
12:51 AM63 °FClear.7 mph60%30.11 "Hg10 mi
11:51 PM
Aug 28
67 °FClear.13 mph57%30.10 "Hg10 mi
10:51 PM62 °FClear.7 mph78%30.07 "Hg10 mi
Weather by CustomWeather, © 2014

See weather overviewHow to use our weather pages